Aiguebelle, Quebec

6:23 AM EST on December 07, 2016 (GMT -0500)
Rouyn-Noranda

Weather History for CYUY - January, 2014

Change the Weather History Date:

Tuesday, January 14, 2014

  Actual Average Record
Temperature  
Mean Temperature 20 °F -  
Max Temperature 33 °F - - ()
Min Temperature 6 °F - - ()
Degree Days  
Heating Degree Days 44    
Moisture  
Dew Point 18 °F    
Average Humidity 85    
Maximum Humidity 100    
Minimum Humidity 74    
Precipitation  
Precipitation 0.00 in - - ()
Sea Level Pressure  
Sea Level Pressure 29.65 in    
Wind  
Wind Speed 8 mph ()    
Max Wind Speed 16 mph    
Max Gust Speed 26 mph    
Visibility 12.2 miles    
Events Snow    
T = Trace of Precipitation, MM = Missing Value Source: Averaged Metar Reports

Daily Weather History Graph

Daily Weather History Graph

Search for Another Location

Airport or City:

Trip Planner

Search our weather history database for the weather conditions in past years. The results will help you decide how hot, cold, wet, or windy it might be!

Date:

Astronomy

Jan. 14, 2014 Rise Set
Actual Time 9:01 AM AST 5:47 PM AST
Civil Twilight 8:26 AM AST 6:22 PM AST
Nautical Twilight 7:47 AM AST 7:01 PM AST
Astronomical Twilight 7:10 AM AST 7:39 PM AST
Moon 4:53 PM AST (1/14) 7:32 AM AST (1/14)
Length of Visible Light 9h 56m
Length of Day
8h 45m
Waxing Gibbous, 98% of the Moon is Illuminated
Jan 14
Waxing Gibbous
Jan 16
Full
Jan 24
Last Quarter
Jan 30
New
Feb 6
First Quarter

Hourly Weather History & Observations

Time (AST) Temp. Windchill Dew Point Humidity Pressure Visibility Wind Dir Wind Speed Gust Speed Precip Events Conditions
12:00 AM 32.0 °F 24.2 °F 32.0 °F 100% 29.41 in 4.0 mi SW 9.2 mph - N/A Snow Light Snow
1:00 AM 32.0 °F 23.6 °F 32.0 °F 100% 29.42 in 6.0 mi SW 10.4 mph - N/A Snow Light Snow
2:00 AM 32.0 °F 24.8 °F 32.0 °F 100% 29.42 in 12.0 mi SW 8.1 mph - N/A Snow Light Snow
3:00 AM 33.8 °F 26.4 °F 32.0 °F 93% 29.44 in 12.0 mi SW 9.2 mph - N/A Snow Light Snow
4:00 AM 32.0 °F 25.6 °F 32.0 °F 100% 29.46 in 12.0 mi SW 6.9 mph - N/A Snow Light Snow
4:45 AM 32.0 °F 23.0 °F 28.4 °F 87% 29.49 in 15.0 mi West 11.5 mph 23.0 mph N/A Snow Light Snow
5:00 AM 30.2 °F 18.9 °F 26.6 °F 86% 29.50 in 15.0 mi WNW 16.1 mph 25.3 mph N/A Snow Light Snow
6:00 AM 28.4 °F 17.5 °F 23.0 °F 80% 29.53 in 15.0 mi West 13.8 mph 21.9 mph N/A   Mostly Cloudy
6:35 AM 26.6 °F 16.2 °F 23.0 °F 86% 29.55 in 10.0 mi WNW 11.5 mph 23.0 mph N/A Snow Light Snow Showers
7:00 AM 24.8 °F 11.9 °F 19.4 °F 80% 29.57 in 15.0 mi WNW 16.1 mph 26.5 mph N/A Snow Light Snow Showers
8:00 AM 23.0 °F 13.1 °F 15.8 °F 74% 29.61 in 15.0 mi NW 9.2 mph 18.4 mph N/A Snow Light Snow Showers
9:00 AM 21.2 °F 13.6 °F 15.8 °F 80% 29.63 in 15.0 mi WNW 5.8 mph - N/A Snow Light Snow Showers
10:00 AM 21.2 °F 13.6 °F 15.8 °F 80% 29.66 in 15.0 mi WSW 5.8 mph - N/A Snow Light Snow Showers
11:00 AM 21.2 °F 13.6 °F 15.8 °F 80% 29.68 in 15.0 mi NW 5.8 mph - N/A Snow Light Snow Showers
12:00 PM 21.2 °F 14.9 °F 15.8 °F 80% 29.70 in 6.0 mi West 4.6 mph - N/A Snow Light Snow Showers
1:00 PM 21.2 °F 14.9 °F 15.8 °F 80% 29.71 in 10.0 mi WNW 4.6 mph - N/A Snow Light Snow Showers
2:00 PM 21.2 °F 12.6 °F 15.8 °F 80% 29.72 in 10.0 mi NNW 6.9 mph - N/A Snow Light Snow Showers
3:00 PM 17.6 °F 5.0 °F 12.2 °F 79% 29.74 in 12.0 mi North 11.5 mph - N/A Snow Light Snow Showers
4:00 PM 17.6 °F 7.3 °F 12.2 °F 79% 29.78 in 4.0 mi North 8.1 mph - N/A Snow Light Snow Showers
5:00 PM 15.8 °F 6.1 °F 10.4 °F 79% 29.80 in 12.0 mi North 6.9 mph - N/A Snow Light Snow Showers
6:00 PM 14.0 °F 3.9 °F 10.4 °F 86% 29.83 in 12.0 mi North 6.9 mph - N/A Snow Light Snow Showers
7:00 PM 12.2 °F 4.3 °F 8.6 °F 85% 29.84 in 15.0 mi North 4.6 mph - N/A Snow Light Snow Showers
8:00 PM 12.2 °F 1.7 °F 6.8 °F 79% 29.86 in 15.0 mi North 6.9 mph - N/A Snow Light Snow Showers
9:00 PM 8.6 °F -4.7 °F 5.0 °F 85% 29.89 in 15.0 mi North 9.2 mph - N/A Snow Light Snow Showers
10:00 PM 8.6 °F -1.3 °F 3.2 °F 79% 29.89 in 15.0 mi North 5.8 mph - N/A Snow Light Snow Showers
11:00 PM 6.8 °F -4.8 °F 3.2 °F 85% 29.89 in 15.0 mi NNW 6.9 mph - N/A Snow Light Snow Showers